Hourly Data Report for July 10, 2021

CAMPBELL RIVER A
BRITISH COLUMBIA
Current Station Operator: NAVCAN

49°57'07.000" N
125°16'23.000" W
108.80 m
1021270
YBL

Download Data

Hourly Data (July 2021)
Hourly Data Report for July 10, 2021
TIME
LST
Temp Definition
°C
Dew Point Definition
°C
Rel Hum Definition
%
Precip. Amount Definition
mm

Wind Dir Definition
10's deg

Wind Spd Definition
km/h
Visibility Definition
km
Stn Press Definition
kPa
Hmdx Definition


Wind Chill Definition


Weather Definition


00:00 18.6 9.9 57 LegendMM 30 16 LegendMM 100.49     LegendNANA
01:00 16.8 11.0 68 LegendMM 33 5 LegendMM 100.54     LegendNANA
02:00 15.4 11.7 78 LegendMM 33 4 LegendMM 100.59     LegendNANA
03:00 15.3 11.3 77 LegendMM 28 8 LegendMM 100.63     LegendNANA
04:00 14.7 11.1 79 LegendMM 30 10 LegendMM 100.68     LegendNANA
05:00 12.9 11.0 88 LegendMM 28 4 LegendMM 100.73     LegendNANA
06:00 15.7 11.6 76 LegendMM 30 10 LegendMM 100.78     LegendNANA
07:00 17.2 12.0 71 LegendMM 35 10 LegendMM 100.81     LegendNANA
08:00 18.9 12.1 64 LegendMM 35 8 LegendMM 100.84     LegendNANA
09:00 20.5 12.6 60 LegendMM 29 3 LegendMM 100.84     LegendNANA
10:00 22.0 12.9 56 LegendMM 12 14 LegendMM 100.86 25   LegendNANA
11:00 22.9 12.8 53 LegendMM 10 13 LegendMM 100.87 26   LegendNANA
12:00 24.2 13.3 50 LegendMM 13 3 LegendMM 100.85 27   LegendNANA
13:00 25.1 12.4 45 LegendMM 5 9 LegendMM 100.81 28   LegendNANA
14:00 26.0 12.3 42 LegendMM 8 8 LegendMM 100.79 28   LegendNANA
15:00 27.4 11.9 38 LegendMM 8 10 LegendMM 100.76 30   LegendNANA
16:00 27.4 12.3 39 LegendMM 8 10 LegendMM 100.71 30   LegendNANA
17:00 27.9 12.1 37 LegendMM 8 13 LegendMM 100.67 30   LegendNANA
18:00 27.2 11.9 38 LegendMM 1 13 LegendMM 100.65 29   LegendNANA
19:00 24.8 12.6 46 LegendMM 30 12 LegendMM 100.66 27   LegendNANA
20:00 22.5 12.6 53 LegendMM 29 14 LegendMM 100.68 25   LegendNANA
21:00 21.5 11.8 53 LegendMM 29 13 LegendMM 100.72     LegendNANA
22:00 20.4 10.0 51 LegendMM 29 12 LegendMM 100.75     LegendNANA
23:00 18.9 9.1 52 LegendMM 29 13 LegendMM 100.75     LegendNANA

Notes on Data Quality.

Legend

  • E = Estimated
  • M = Missing
  • NA = Not Available*
  • [empty] = Indicates an unobserved value
Date modified: